Location: River House Observatory
(37.8577°N, 76.3548°W)
Time: 07:03:13
(UTC-04:00)

Daily predictions for brighter satellites

Satellite Brightness Start Highest point End
(mag) Time Altitude Azimuth Time Altitude Azimuth Time Altitude Azimuth
Cosmos 1674 4.3 20:58:57 10° SE 21:01:32 18° E 21:04:09 10° NE
BREEZE-M R/B 4.0 21:02:39 10° WNW 21:05:37 24° SW 21:07:47 10° S
Cosmos 1707 4.0 21:02:17 10° SSW 21:05:59 45° W 21:09:42 10° N
Cosmos 1726 4.3 21:07:26 10° NE 21:08:57 12° ENE 21:10:27 10° E
ERS-2 2.2 21:07:18 10° SSE 21:10:56 65° ENE 21:14:34 10° N
Spot 2 Rocket 3.6 21:06:34 10° SSE 21:11:33 66° ENE 21:16:36 10° N
Cosmos 1238 Rocket 2.6 21:10:27 10° SSE 21:13:13 39° E 21:16:07 10° NNE
Cosmos 1420 Rocket 4.4 21:10:57 10° NNW 21:16:05 65° WSW 21:21:13 10° S
Cosmos 1452 Rocket 4.2 21:12:29 10° NNW 21:17:39 55° WSW 21:22:46 10° S
Resurs 1-3 4.0 21:15:59 10° S 21:20:19 65° WSW 21:24:42 10° NNW
ATLAS 3B R/B 3.6 21:15:20 10° NNW 21:21:17 34° NE 21:27:09 10° ESE
Cosmos 1939 Rocket 4.2 21:18:05 10° SSW 21:21:54 39° W 21:25:42 10° NNW
Lacrosse 5 3.4 21:17:33 10° WSW 21:22:19 40° NW 21:27:05 10° NNE
ARGOS 3.7 21:17:37 10° SE 21:22:42 44° ENE 21:27:50 10° N
Cosmos 1953 Rocket 3.5 21:21:52 10° S 21:26:11 80° E 21:30:36 10° N
Cosmos 2278 Rocket 3.3 21:21:55 10° SSE 21:26:20 24° E 21:30:47 10° NE
USA 238 DEB 4.3 21:21:13 10° NNW 21:28:10 51° NE 21:34:27 13° SE
USA 238 4.3 21:21:20 10° NNW 21:28:16 51° NE 21:34:33 13° SE
Cosmos 1758 Rocket 3.9 21:26:46 10° SSW 21:31:11 71° W 21:35:36 10° N
Cosmos 1110 Rocket 4.4 21:28:05 10° N 21:33:05 48° ENE 21:37:11 15° SE
Cosmos 1315 Rocket 3.8 21:34:47 10° SSW 21:38:43 50° WNW 21:42:44 10° N
Cosmos 1844 Rocket 2.9 21:34:33 10° SSW 21:40:13 77° WNW 21:45:54 10° NNE
Cosmos 494 Rocket 3.9 21:37:05 10° SSW 21:42:19 78° ESE 21:47:35 10° NNE
Cosmos 1331 Rocket 4.3 21:39:27 10° N 21:44:34 54° ENE 21:48:20 18° SE
Cosmos 921 Rocket 3.1 21:41:11 10° N 21:45:41 68° ENE 21:48:59 18° SSE
COSMOS 2406 3.5 21:43:45 10° NNW 21:49:25 55° ENE 21:53:24 19° SE
Cosmos 1461 3.4 21:45:07 10° S 21:49:28 45° ESE 21:54:00 10° NE
Cosmos 1844 3.8 21:44:07 10° SSW 21:49:48 84° WNW 21:55:36 10° NNE
Resurs 01 Rocket 3.3 21:47:03 10° SSW 21:50:58 31° W 21:54:55 10° NW
H-2A R/B 2.2 21:47:32 16° SSE 21:51:45 66° ENE 21:57:07 10° N
ATLAS 2AS CENTAUR R/B 3.6 21:45:26 10° SW 21:53:08 64° NW 22:01:13 10° NNE
KORONAS-FOTON 3.8 21:51:16 15° S 21:54:25 64° E 21:58:18 10° NNE
ATLAS 5 CENTAUR R/B 2.5 21:53:56 21° SSE 21:55:42 27° ESE 21:59:38 10° NE
Cosmos 1437 3.8 21:56:40 10° NNW 21:59:41 42° W 22:02:07 14° SSW
SL-14 R/B 4.2 22:00:39 26° ESE 22:01:45 30° E 22:05:13 10° NNE
OAO 3 Rocket 3.4 21:57:00 10° W 22:01:50 54° S 22:04:34 24° ESE
Cosmos 1417 Rocket 4.5 21:56:47 10° S 22:03:06 82° E 22:09:26 10° N
SEDSat Delta rocket 4.1 21:59:21 10° SW 22:04:09 32° S 22:05:50 25° SE
Cosmos 220 Rocket 3.8 22:03:34 10° SSW 22:07:47 83° ESE 22:12:01 10° NNE
Terra 3.4 22:06:52 17° E 22:08:44 21° ENE 22:12:16 10° NNE
Cosmos 1346 Rocket 3.7 22:05:08 10° NNW 22:09:01 47° W 22:12:14 14° SSW
ERS-1 Rocket 3.0 22:06:44 23° SSE 22:09:49 70° ENE 22:14:51 10° N
Cosmos 1626 3.8 22:10:24 18° E 22:10:24 18° E 22:12:48 10° NE
Cosmos 1302 Rocket 4.3 22:09:11 10° N 22:14:23 55° ENE 22:16:58 28° SE
Cosmos 1833 Rocket 4.3 22:10:06 10° N 22:14:27 22° NE 22:17:18 16° E
Cosmos 2082 Rocket 3.9 22:11:35 10° N 22:15:49 21° NE 22:18:47 14° E
USA 215 3.6 22:14:20 22° SSE 22:18:40 57° SW 22:25:07 10° NW
CZ-2C R/B 4.1 22:16:50 10° NE 22:20:30 19° E 22:20:49 18° E
Cosmos 1745 Rocket 4.0 22:14:51 10° N 22:21:09 70° E 22:24:48 26° SSE
SL-08 R/B 4.5 22:16:37 10° N 22:22:48 89° W 22:27:01 22° S
Cosmos 1340 2.6 22:19:40 10° N 22:23:29 88° W 22:24:49 39° S
Cosmos 1908 4.0 22:19:48 10° NNW 22:23:33 48° W 22:25:48 22° SSW
DMSP B5D2-2 4.0 22:20:03 10° NNE 22:25:18 83° ESE 22:29:09 19° S
CENTAUR R/B 4.2 22:20:09 10° NNW 22:27:19 35° NE 22:33:17 16° ESE
NOSS 2-2 (E) 3.2 22:26:03 31° S 22:27:42 62° ESE 22:31:51 10° NE
Cosmos 2251 Rocket 3.6 22:22:38 10° SSW 22:27:59 82° WNW 22:33:20 10° NNE
NOSS 3-4 (A) 3.4 22:24:28 10° SSW 22:30:37 86° ESE 22:37:00 10° NNE
Cosmos 1076 Rocket 4.2 22:30:20 33° E 22:30:39 33° E 22:34:29 10° NNE
NOSS 3-4 (C) 3.4 22:24:33 10° SSW 22:30:41 85° ESE 22:37:05 10° NE
H-2A R/B (2) 4.4 22:29:54 18° S 22:35:00 30° SE 23:08:36 10° E
H-2A R/B (2) 4.4 22:29:57 18° S 22:35:00 30° SE 23:08:36 10° E
H-2A R/B (2) 4.4 22:29:55 18° S 22:35:00 30° SE 23:08:36 10° E
Meteor 2-10 4.3 22:30:41 10° NNW 22:36:09 71° W 22:39:22 26° S
Helios 1B rocket 2.5 22:34:12 10° NNE 22:38:15 57° E 22:38:53 50° SE
Helios 1A 2.9 22:37:59 47° SSE 22:39:08 81° ENE 22:43:21 10° N
Meteor 1-29 3.8 22:39:06 10° NNE 22:41:37 36° ENE 22:41:37 36° ENE
Cosmos 1455 4.3 22:41:35 10° NE 22:43:26 15° ENE 22:43:26 15° ENE
Cosmos 1726 3.4 22:40:53 10° NNW 22:44:21 36° W 22:45:50 25° SW
Cosmos 1300 2.5 22:42:00 10° N 22:45:50 86° E 22:46:20 66° SSE
APEX 3.5 22:48:47 10° NW 22:52:05 53° WSW 22:52:31 50° SW
Cosmos 1709 Rocket 4.0 22:48:08 10° N 22:54:17 63° E 22:56:22 41° SE
Cosmos 1842 Rocket 4.3 22:51:11 10° NNW 22:55:20 46° W 22:56:56 31° SW
CZ-2C R/B 3.5 22:54:27 40° SE 22:56:20 58° ENE 23:01:58 10° N
SPOT 5 3.3 22:54:57 36° S 22:56:56 64° W 23:02:11 10° NNW
NOSS 2-2 (D) 3.4 22:57:20 35° SW 22:58:50 72° WNW 23:03:02 10° NNE
RESURS DK-1 2.4 23:03:43 63° E 23:03:43 63° E 23:07:31 10° NNE
Cosmos 2278 Rocket 3.3 23:04:43 10° SW 23:10:05 43° WNW 23:15:30 10° N
ATLAS 3B R/B 3.2 23:05:51 10° NW 23:12:04 46° WSW 23:14:24 33° SSW
Meteor 1-11 4.3 23:12:37 52° SSE 23:13:48 64° E 23:19:32 10° NNE
Cosmos 1328 3.8 23:14:45 70° W 23:14:50 70° W 23:18:47 10° N
Cosmos 2221 3.1 23:16:29 10° NNW 23:20:37 46° W 23:21:10 43° WSW
Spot 1 4.2 23:21:12 64° SW 23:21:34 68° WSW 23:26:10 10° NNW
SL-27 R/B 3.4 23:21:48 10° N 23:24:32 45° NNE 23:24:32 45° NNE
Okean 3 Rocket 3.9 23:27:16 54° WSW 23:27:45 58° W 23:32:05 10° N
H-2A R/B 4.5 23:28:54 10° WSW 23:31:36 14° W 23:34:21 10° WNW
Cosmos 2315 Rocket 4.4 23:29:38 33° SSW 23:32:27 61° W 23:38:45 10° N
Aureole 3 Rocket 4.3 23:31:28 32° SSW 23:35:02 67° W 23:40:39 10° N
Cosmos 1328 Rocket 4.3 23:33:04 10° N 23:36:39 41° NE 23:36:39 41° NE
Cosmos 2369 Rocket 3.8 23:39:37 21° E 23:39:37 21° E 23:42:36 10° NE
ATLAS 5 CENTAUR R/B 3.5 23:36:14 10° WSW 23:40:12 30° NW 23:44:30 10° NNE
Cosmos 405 Rocket 4.3 23:37:09 10° N 23:39:21 26° NE 23:39:21 26° NE
Cosmos 1626 4.1 23:44:59 22° W 23:45:20 23° WNW 23:48:20 10° NNW
Cosmos 2228 Rocket 4.3 23:41:39 10° NNE 23:45:04 33° ENE 23:45:04 33° ENE
Terra 2.7 23:45:46 36° WSW 23:46:12 37° W 23:50:37 10° NNW
Cosmos 2184 Rocket 3.9 23:43:20 10° N 23:49:39 69° E 23:50:33 60° SE
